This is the latest recevied weather packets stored in our database for station/object N2XP-2. If no packets are shown the sender has not sent any weather packets the latest 10 day(s).
| Time | Temp. | Humidity | Pressure | Rain* | Wind** | Luminosity | Snow |
|---|---|---|---|---|---|---|---|
| 1778111812 | 21.11° C | 76% | 1008 hPa | 0 mm | 0.45 m/s, 188° | - | - |
| 1778111513 | 21.11° C | 76% | 1008 hPa | 0 mm | 0.89 m/s, 198° | - | - |
| 1778111207 | 21.11° C | 75% | 1007.9 hPa | 0 mm | 0 m/s | - | - |
| 1778111202 | 21.11° C | 75% | 1007.8 hPa | 0 mm | 0.89 m/s, 173° | - | - |
| 1778111192 | 21.67° C | 75% | 1007.8 hPa | 0 mm | 0 m/s | - | - |
| 1778110906 | 21.11° C | 76% | 1007.9 hPa | 0 mm | 0.45 m/s, 180° | - | - |
| 1778110649 | 21.11° C | 76% | 1007.9 hPa | 0 mm | 0.89 m/s, 293° | - | - |
| 1778110607 | 21.11° C | 76% | 1007.9 hPa | 0 mm | 0.89 m/s, 293° | - | - |
| 1778110308 | 21.11° C | 75% | 1007.9 hPa | 0 mm | 0.45 m/s, 253° | - | - |
| 1778110004 | 21.11° C | 75% | 1007.9 hPa | 0 mm | 0 m/s | - | - |
| 1778109705 | 21.11° C | 75% | 1007.8 hPa | 0 mm | 0.89 m/s, 173° | - | - |
| 1778109406 | 21.67° C | 75% | 1007.8 hPa | 0 mm | 0 m/s | - | - |
| 1778109282 | 21.67° C | 74% | 1007.8 hPa | 0 mm | 0.45 m/s, 186° | - | - |
| 1778109279 | 21.67° C | 74% | 1007.7 hPa | 0 mm | 0.89 m/s, 232° | - | - |
| 1778109271 | 21.67° C | 73% | 1007.6 hPa | 0 mm | 0 m/s | - | - |
| 1778109103 | 21.67° C | 74% | 1007.8 hPa | 0 mm | 0 m/s | - | - |
| 1778108804 | 21.67° C | 74% | 1007.9 hPa | 0 mm | 0.45 m/s, 204° | - | - |
| 1778108505 | 21.67° C | 74% | 1007.8 hPa | 0 mm | 0.45 m/s, 156° | - | - |
| 1778108201 | 21.67° C | 74% | 1007.8 hPa | 0 mm | 0.45 m/s, 186° | - | - |
| 1778107902 | 21.67° C | 74% | 1007.7 hPa | 0 mm | 0.89 m/s, 232° | - | - |
| 1778107603 | 21.67° C | 73% | 1007.6 hPa | 0 mm | 0 m/s | - | - |
| 1778107300 | 21.67° C | 73% | 1007.6 hPa | 0 mm | 0.89 m/s, 225° | - | - |
| 1778107001 | 21.67° C | 73% | 1007.6 hPa | 0 mm | 0 m/s | - | - |
| 1778106702 | 21.67° C | 73% | 1007.7 hPa | 0 mm | 0.89 m/s, 212° | - | - |
| 1778106398 | 21.67° C | 73% | 1007.7 hPa | 0 mm | 0.45 m/s, 325° | - | - |
* Rain latest hour (hover to see other rain measurements)
** Current wind speed in m/s (hover to see current wind gust speed)